Location: Maccacari
(45.1333°N, 11.1333°E)
Time: 19:45:43
(UTC+00:00)

Tiros 1 despin weight - Pass Details

Date: 26 January 2021
Orbit: 593 x 642 km, 48.2° (Epoch: 26 February)

Event Time Altitude Azimuth Distance (km) Brightness Sun altitude
Rises 14:05:05 0° 255° (WSW) 2,892 ? 17.0°
Reaches altitude 10° 14:07:25 10° 257° (WSW) 1,979 ? 16.7°
Maximum altitude 14:11:58 77° 344° (NNW) 631 ? 16.2°
Drops below altitude 10° 14:16:27 10° 70° (ENE) 1,953 ? 15.7°
Sets 14:18:44 0° 72° (ENE) 2,850 ? 15.4°
